Marysville, OH

3:58 PM EST on December 12, 2017 (GMT -0500)
Marysville

Weather History for KMRT - February, 2014

Change the Weather History Date:

Monday, February 10, 2014

  Actual Average (KDLZ) Record (KDLZ)
Temperature  
Mean Temperature 6 °F -  
Max Temperature 18 °F 31 °F 61 °F (1959)
Min Temperature -7 °F 10 °F -13 °F (1979)
Degree Days  
Heating Degree Days 59    
Moisture  
Dew Point 1 °F    
Average Humidity 76    
Maximum Humidity 88    
Minimum Humidity 59    
Precipitation  
Precipitation 0.00 in - - ()
Sea Level Pressure  
Sea Level Pressure 30.27 in    
Wind  
Wind Speed 4 mph (NW)    
Max Wind Speed 8 mph    
Max Gust Speed -    
Visibility 8 miles    
Events      
Averages and records for this station are not official NWS values.
T = Trace of Precipitation, MM = Missing Value Source: NWS Daily Summary

Daily Weather History Graph

Daily Weather History Graph

Search for Another Location

Airport or City:

Trip Planner

Search our weather history database for the weather conditions in past years. The results will help you decide how hot, cold, wet, or windy it might be!

Date:

Astronomy

Feb. 10, 2014 Rise Set
Actual Time 7:32 AM EST 6:03 PM EST
Civil Twilight 7:04 AM EST 6:31 PM EST
Nautical Twilight 6:32 AM EST 7:03 PM EST
Astronomical Twilight 6:00 AM EST 7:34 PM EST
Moon 2:31 PM EST (2/10) 4:25 AM EST (2/10)
Length of Visible Light 11h 26m
Length of Day
10h 30m
Waxing Gibbous, 84% of the Moon is Illuminated
Feb 10
Waxing Gibbous
Feb 14
Full
Feb 22
Last Quarter
Mar 1
New
Mar 8
First Quarter

Hourly Weather History & Observations

Time (EST) Temp. Windchill Dew Point Humidity Pressure Visibility Wind Dir Wind Speed Gust Speed Precip Events Conditions
12:14 AM 13.8 °F 4.9 °F 7.9 °F 77% 30.19 in 10.0 mi NW 5.8 mph - N/A   Clear
12:34 AM 11.8 °F 3.9 °F 6.3 °F 78% 30.19 in 10.0 mi WNW 4.6 mph - N/A   Scattered Clouds
12:54 AM 10.6 °F 4.3 °F 6.1 °F 82% 30.19 in 10.0 mi WNW 3.5 mph - N/A   Clear
1:14 AM 6.8 °F -0.1 °F 2.1 °F 81% 30.19 in 10.0 mi WNW 3.5 mph - N/A   Clear
1:34 AM 7.9 °F -0.7 °F 4.1 °F 85% 30.19 in 10.0 mi WNW 4.6 mph - N/A   Clear
1:54 AM 7.0 °F -3.3 °F 2.5 °F 82% 30.20 in 10.0 mi West 5.8 mph - N/A   Clear
2:14 AM 9.3 °F -0.5 °F 5.5 °F 85% 30.20 in 7.0 mi WNW 5.8 mph - N/A   Clear
2:34 AM 8.6 °F -2.6 °F 4.5 °F 83% 30.21 in 7.0 mi WNW 6.9 mph - N/A   Clear
2:54 AM 3.4 °F -8.9 °F 0.5 °F 88% 30.21 in 5.0 mi WNW 6.9 mph - N/A   Clear
3:14 AM 7.5 °F -2.6 °F 3.9 °F 85% 30.21 in 7.0 mi NW 5.8 mph - N/A   Clear
3:34 AM 5.4 °F -1.7 °F 0.9 °F 82% 30.20 in 7.0 mi West 3.5 mph - N/A   Clear
3:54 AM 4.3 °F -6.5 °F 0.5 °F 84% 30.20 in 7.0 mi West 5.8 mph - N/A   Clear
4:14 AM 0.3 °F -9.5 °F -4.4 °F 81% 30.20 in 5.0 mi West 4.6 mph - N/A   Clear
4:34 AM 0.3 °F -12.6 °F -2.7 °F 87% 30.20 in 5.0 mi West 6.9 mph - N/A   Clear
4:53 AM 5.4 °F -3.6 °F 1.9 °F 86% 30.21 in 7.0 mi WNW 4.6 mph - N/A   Clear
5:14 AM 3.9 °F -9.4 °F -0.0 °F 84% 30.21 in 7.0 mi WNW 8.1 mph - N/A   Clear
5:34 AM 4.3 °F -7.8 °F 0.5 °F 84% 30.22 in 5.0 mi WNW 6.9 mph - N/A   Clear
5:53 AM 3.9 °F -6.9 °F -0.4 °F 82% 30.22 in 7.0 mi WNW 5.8 mph - N/A   Clear
6:14 AM 1.6 °F -8.0 °F -2.7 °F 82% 30.23 in 7.0 mi West 4.6 mph - N/A   Clear
6:34 AM -3.6 °F -14.1 °F -8.1 °F 81% 30.24 in 7.0 mi West 4.6 mph - N/A   Clear
6:54 AM -4.5 °F -13.0 °F -9.0 °F 81% 30.24 in 7.0 mi West 3.5 mph - N/A   Clear
7:14 AM -4.9 °F -13.4 °F -9.6 °F 80% 30.25 in 5.0 mi West 3.5 mph - N/A   Clear
7:34 AM -1.5 °F -9.5 °F -5.6 °F 83% 30.25 in 4.0 mi West 3.5 mph - N/A   Clear
7:54 AM -6.5 °F -17.5 °F -11.4 °F 79% 30.25 in 5.0 mi West 4.6 mph - N/A   Clear
8:14 AM -4.9 °F -13.4 °F -9.4 °F 81% 30.25 in 4.0 mi West 3.5 mph - N/A   Clear
8:34 AM -5.8 °F -14.5 °F -10.5 °F 80% 30.26 in 4.0 mi West 3.5 mph - N/A   Clear
8:54 AM -1.7 °F -9.7 °F -5.8 °F 83% 30.27 in 5.0 mi West 3.5 mph - N/A   Clear
9:14 AM 1.4 °F -6.2 °F -2.9 °F 82% 30.28 in 5.0 mi WNW 3.5 mph - N/A   Clear
9:34 AM 4.3 °F - 0.5 °F 84% 30.28 in 7.0 mi Calm Calm - N/A   Clear
9:54 AM 10.4 °F -0.4 °F 6.8 °F 85% 30.28 in 7.0 mi NNW 6.9 mph - N/A   Clear
10:14 AM 11.3 °F 0.7 °F 7.5 °F 85% 30.29 in 7.0 mi NNW 6.9 mph - N/A   Clear
10:34 AM 12.7 °F 2.4 °F 7.7 °F 80% 30.30 in 10.0 mi NNW 6.9 mph - N/A   Clear
10:54 AM 14.4 °F 6.9 °F 7.7 °F 75% 30.30 in 10.0 mi NNW 4.6 mph - N/A   Clear
11:14 AM 15.6 °F 7.0 °F 7.7 °F 71% 30.30 in 10.0 mi NNW 5.8 mph - N/A   Clear
11:34 AM 13.8 °F - 5.0 °F 68% 30.30 in 7.0 mi Calm Calm - N/A   Clear
11:54 AM 16.3 °F 10.8 °F 7.0 °F 67% 30.30 in 7.0 mi ESE 3.5 mph - N/A   Clear
12:14 PM 16.9 °F - 7.0 °F 65% 30.30 in 7.0 mi Calm Calm - N/A   Clear
12:34 PM 17.2 °F 8.9 °F 7.0 °F 64% 30.29 in 10.0 mi NNE 5.8 mph - N/A   Clear
12:54 PM 17.6 °F 10.7 °F 6.3 °F 61% 30.28 in 10.0 mi NNE 4.6 mph - N/A   Clear
1:14 PM 18.1 °F 11.3 °F 5.9 °F 59% 30.28 in 10.0 mi NNE 4.6 mph - N/A   Clear
1:34 PM 16.5 °F 8.1 °F 5.2 °F 61% 30.28 in 10.0 mi NE 5.8 mph - N/A   Clear
1:54 PM 16.5 °F 9.4 °F 5.7 °F 63% 30.27 in 10.0 mi NNE 4.6 mph - N/A   Scattered Clouds
2:14 PM 17.2 °F - 5.5 °F 60% 30.27 in 10.0 mi Calm Calm - N/A   Overcast
2:34 PM 17.4 °F - 5.9 °F 61% 30.27 in 10.0 mi Calm Calm - N/A   Overcast
2:54 PM 17.4 °F - 6.3 °F 62% 30.27 in 10.0 mi Calm Calm - N/A   Overcast
3:14 PM 17.4 °F - 6.8 °F 63% 30.28 in 10.0 mi Calm Calm - N/A   Overcast
3:34 PM 17.1 °F - 6.6 °F 64% 30.28 in 7.0 mi Calm Calm - N/A   Overcast
3:54 PM 16.7 °F 11.2 °F 7.2 °F 66% 30.28 in 5.0 mi North 3.5 mph - N/A   Overcast
4:14 PM 16.5 °F - 7.0 °F 66% 30.29 in 5.0 mi Calm Calm - N/A   Overcast
4:34 PM 16.5 °F - 6.8 °F 66% 30.29 in 10.0 mi Calm Calm - N/A   Overcast
4:54 PM 16.2 °F - 6.6 °F 66% 30.29 in 10.0 mi Calm Calm - N/A   Overcast
5:14 PM 16.0 °F 8.8 °F 6.3 °F 66% 30.29 in 10.0 mi NNE 4.6 mph - N/A   Overcast
5:34 PM 15.6 °F 10.0 °F 5.4 °F 64% 30.30 in 10.0 mi North 3.5 mph - N/A   Overcast
5:54 PM 14.9 °F - 5.0 °F 65% 30.30 in 10.0 mi Calm Calm - N/A   Scattered Clouds
6:14 PM 11.7 °F - 3.7 °F 71% 30.30 in 10.0 mi Calm Calm - N/A   Clear
6:34 PM 12.9 °F 6.9 °F 3.6 °F 66% 30.31 in 10.0 mi WNW 3.5 mph - N/A   Clear
6:54 PM 11.8 °F 3.9 °F 2.8 °F 67% 30.32 in 10.0 mi WNW 4.6 mph - N/A   Clear
7:14 PM 4.8 °F -4.3 °F -3.6 °F 68% 30.32 in 10.0 mi WNW 4.6 mph - N/A   Clear
7:34 PM 2.5 °F - -3.1 °F 78% 30.33 in 10.0 mi Calm Calm - N/A   Clear
7:54 PM -1.1 °F -9.1 °F -6.7 °F 77% 30.33 in 10.0 mi NW 3.5 mph - N/A   Clear
8:14 PM -1.8 °F - -6.3 °F 81% 30.34 in 7.0 mi Calm Calm - N/A   Clear
8:34 PM -1.1 °F -9.1 °F -5.6 °F 81% 30.34 in 10.0 mi WNW 3.5 mph - N/A   Clear
8:54 PM -2.0 °F - -6.3 °F 82% 30.33 in 7.0 mi Calm Calm - N/A   Clear
9:14 PM 0.5 °F -7.3 °F -3.1 °F 85% 30.34 in 7.0 mi NW 3.5 mph - N/A   Clear
9:34 PM 6.8 °F -2.0 °F 1.6 °F 79% 30.35 in 7.0 mi NW 4.6 mph - N/A   Clear
9:54 PM 6.6 °F -2.2 °F 1.2 °F 79% 30.36 in 7.0 mi NW 4.6 mph - N/A   Clear
10:14 PM 5.9 °F -1.1 °F 0.7 °F 79% 30.36 in 7.0 mi NW 3.5 mph - N/A   Clear
10:34 PM -2.4 °F -10.6 °F -6.5 °F 82% 30.36 in 7.0 mi West 3.5 mph - N/A   Clear
10:54 PM 5.0 °F -2.1 °F 1.0 °F 84% 30.35 in 7.0 mi NW 3.5 mph - N/A   Clear
11:14 PM -2.4 °F - -6.7 °F 82% 30.35 in 5.0 mi Calm Calm - N/A   Clear
11:34 PM -5.3 °F - -9.6 °F 82% 30.35 in 4.0 mi Calm Calm - N/A   Clear
11:54 PM -7.6 °F - -12.8 °F 78% 30.35 in 4.0 mi Calm Calm - N/A   Clear